Time,TemperatureF,DewpointF,PressureIn,WindDirection,WindDirectionDegrees,WindSpeedMPH,WindSpeedGustMPH,Humidity,HourlyPrecipIn,Conditions,Clouds,dailyrainin,SoftwareType,DateUTC
2013-07-31 00:04:00,75.4,73.9,29.93,NE,45,0.0,-999.0,95,-99.99,,,0.00,Acu-Link.com,2013-07-31 05:04:00,
2013-07-31 00:19:00,75.4,73.5,29.93,WSW,247,0.0,-999.0,94,-99.99,,,0.00,Acu-Link.com,2013-07-31 05:19:00,
2013-07-31 00:34:00,75.6,73.7,29.92,ESE,112,0.0,-999.0,94,-99.99,,,0.00,Acu-Link.com,2013-07-31 05:34:00,
2013-07-31 00:50:00,75.6,73.7,29.92,East,90,0.0,-999.0,94,-99.99,,,0.00,Acu-Link.com,2013-07-31 05:50:00,
2013-07-31 01:05:00,75.4,73.5,29.92,ESE,112,0.0,-999.0,94,-99.99,,,0.00,Acu-Link.com,2013-07-31 06:05:00,
2013-07-31 01:20:00,75.4,73.5,29.92,ESE,112,0.0,-999.0,94,-99.99,,,0.00,Acu-Link.com,2013-07-31 06:20:00,
2013-07-31 01:36:00,74.8,73.3,29.92,ESE,112,0.0,-999.0,95,-99.99,,,0.00,Acu-Link.com,2013-07-31 06:36:00,
2013-07-31 01:51:00,74.8,73.6,29.92,ESE,112,0.0,-999.0,96,-99.99,,,0.00,Acu-Link.com,2013-07-31 06:51:00,
2013-07-31 02:06:00,75.0,73.8,29.92,ESE,112,0.0,-999.0,96,-99.99,,,0.00,Acu-Link.com,2013-07-31 07:06:00,
2013-07-31 02:22:00,75.0,73.8,29.92,ESE,112,0.0,-999.0,96,-99.99,,,0.00,Acu-Link.com,2013-07-31 07:22:00,
2013-07-31 02:37:00,74.8,73.6,29.92,South,180,0.0,-999.0,96,-99.99,,,0.00,Acu-Link.com,2013-07-31 07:37:00,
2013-07-31 02:52:00,74.7,73.5,29.91,South,180,0.0,-999.0,96,-99.99,,,0.00,Acu-Link.com,2013-07-31 07:52:00,
2013-07-31 03:07:00,74.5,73.3,29.92,South,180,0.0,-999.0,96,-99.99,,,0.00,Acu-Link.com,2013-07-31 08:07:00,
2013-07-31 03:23:00,74.1,72.9,29.92,South,180,0.0,-999.0,96,-99.99,,,0.00,Acu-Link.com,2013-07-31 08:23:00,
2013-07-31 03:38:00,73.8,72.6,29.90,South,180,0.0,-999.0,96,-99.99,,,0.00,Acu-Link.com,2013-07-31 08:38:00,
2013-07-31 03:53:00,73.4,72.5,29.89,WNW,292,0.0,-999.0,97,-99.99,,,0.00,Acu-Link.com,2013-07-31 08:53:00,
2013-07-31 04:08:00,73.0,72.1,29.90,NNE,22,1.7,-999.0,97,-99.99,,,0.00,Acu-Link.com,2013-07-31 09:08:00,
2013-07-31 04:23:00,72.9,72.0,29.91,North,0,0.0,-999.0,97,-99.99,,,0.00,Acu-Link.com,2013-07-31 09:23:00,
2013-07-31 04:39:00,72.5,71.6,29.90,ESE,112,0.0,-999.0,97,-99.99,,,0.00,Acu-Link.com,2013-07-31 09:39:00,
2013-07-31 04:54:00,72.1,71.2,29.91,ESE,112,0.0,-999.0,97,-99.99,,,0.00,Acu-Link.com,2013-07-31 09:54:00,
2013-07-31 05:09:00,72.0,71.1,29.91,ESE,112,0.0,-999.0,97,-99.99,,,0.00,Acu-Link.com,2013-07-31 10:09:00,
2013-07-31 05:25:00,71.8,71.2,29.91,ESE,112,0.0,-999.0,98,-99.99,,,0.00,Acu-Link.com,2013-07-31 10:25:00,
2013-07-31 05:40:00,71.8,71.5,29.91,NNE,22,0.0,-999.0,99,-99.99,,,0.00,Acu-Link.com,2013-07-31 10:40:00,
2013-07-31 05:55:00,71.8,71.5,29.92,West,270,0.0,-999.0,99,-99.99,,,0.00,Acu-Link.com,2013-07-31 10:55:00,
2013-07-31 06:10:00,71.4,71.1,29.93,NW,315,0.0,-999.0,99,-99.99,,,0.00,Acu-Link.com,2013-07-31 11:10:00,
2013-07-31 06:26:00,71.4,71.1,29.95,West,270,0.0,-999.0,99,-99.99,,,0.00,Acu-Link.com,2013-07-31 11:26:00,
2013-07-31 06:41:00,71.8,71.5,29.95,North,0,0.0,-999.0,99,-99.99,,,0.00,Acu-Link.com,2013-07-31 11:41:00,
2013-07-31 06:56:00,72.3,72.0,29.95,South,180,0.0,-999.0,99,-99.99,,,0.00,Acu-Link.com,2013-07-31 11:56:00,
2013-07-31 07:27:00,72.7,72.4,29.94,SSE,157,0.0,-999.0,99,-99.99,,,0.00,Acu-Link.com,2013-07-31 12:27:00,
2013-07-31 07:42:00,74.5,73.6,29.95,ESE,112,0.0,-999.0,97,-99.99,,,0.00,Acu-Link.com,2013-07-31 12:42:00,
2013-07-31 07:58:00,75.4,73.9,29.94,SSW,202,2.2,-999.0,95,-99.99,,,0.00,Acu-Link.com,2013-07-31 12:58:00,
2013-07-31 08:13:00,76.6,74.1,29.94,SSE,157,2.2,-999.0,92,-99.99,,,0.00,Acu-Link.com,2013-07-31 13:13:00,
2013-07-31 08:28:00,77.7,74.5,29.95,NE,45,1.1,-999.0,90,-99.99,,,0.00,Acu-Link.com,2013-07-31 13:28:00,
2013-07-31 08:43:00,78.8,74.6,29.95,NNE,22,1.7,-999.0,87,-99.99,,,0.00,Acu-Link.com,2013-07-31 13:43:00,
2013-07-31 08:59:00,80.1,74.8,29.95,ESE,112,1.1,-999.0,84,-99.99,,,0.00,Acu-Link.com,2013-07-31 13:59:00,
2013-07-31 09:14:00,81.3,74.9,29.95,NE,45,0.0,-999.0,81,-99.99,,,0.00,Acu-Link.com,2013-07-31 14:14:00,
2013-07-31 09:29:00,82.8,74.8,29.95,SSE,157,0.0,-999.0,77,-99.99,,,0.00,Acu-Link.com,2013-07-31 14:29:00,
2013-07-31 09:45:00,83.5,75.1,29.95,SSE,157,2.7,-999.0,76,-99.99,,,0.00,Acu-Link.com,2013-07-31 14:45:00,
2013-07-31 10:00:00,83.1,75.1,29.95,SSW,202,1.1,-999.0,77,-99.99,,,0.00,Acu-Link.com,2013-07-31 15:00:00,
2013-07-31 10:15:00,81.0,74.2,29.95,West,270,0.0,-999.0,80,-99.99,,,0.00,Acu-Link.com,2013-07-31 15:15:00,
2013-07-31 10:31:00,81.3,73.8,29.95,WNW,292,0.0,-999.0,78,-99.99,,,0.00,Acu-Link.com,2013-07-31 15:31:00,
2013-07-31 11:01:00,84.2,73.3,29.95,West,270,1.7,-999.0,70,-99.99,,,0.00,Acu-Link.com,2013-07-31 16:01:00,
2013-07-31 11:16:00,82.8,74.4,29.94,WSW,247,0.0,-999.0,76,-99.99,,,0.00,Acu-Link.com,2013-07-31 16:16:00,
2013-07-31 11:47:00,86.9,74.6,29.94,WNW,292,2.2,-999.0,67,-99.99,,,0.00,Acu-Link.com,2013-07-31 16:47:00,
2013-07-31 12:17:00,87.8,73.6,29.93,NNE,22,1.7,-999.0,63,-99.99,,,0.00,Acu-Link.com,2013-07-31 17:17:00,
2013-07-31 12:33:00,88.5,73.8,29.93,NNE,22,2.2,-999.0,62,-99.99,,,0.00,Acu-Link.com,2013-07-31 17:33:00,
2013-07-31 12:48:00,85.6,73.8,29.93,WNW,292,3.7,-999.0,68,-99.99,,,0.00,Acu-Link.com,2013-07-31 17:48:00,
2013-07-31 13:03:00,87.4,75.5,29.92,WNW,292,2.7,-999.0,68,-99.99,,,0.00,Acu-Link.com,2013-07-31 18:03:00,
2013-07-31 13:19:00,87.1,74.8,29.93,SW,225,2.7,-999.0,67,-99.99,,,0.00,Acu-Link.com,2013-07-31 18:19:00,
2013-07-31 13:34:00,86.7,74.4,29.93,ENE,67,2.2,-999.0,67,-99.99,,,0.00,Acu-Link.com,2013-07-31 18:34:00,
2013-07-31 13:49:00,87.8,74.5,29.92,NNW,337,3.7,-999.0,65,-99.99,,,0.00,Acu-Link.com,2013-07-31 18:49:00,
2013-07-31 14:04:00,88.3,74.5,29.93,NW,315,2.7,-999.0,64,-99.99,,,0.00,Acu-Link.com,2013-07-31 19:04:00,
2013-07-31 14:20:00,88.3,74.1,29.92,NW,315,2.7,-999.0,63,-99.99,,,0.00,Acu-Link.com,2013-07-31 19:20:00,
2013-07-31 14:35:00,85.8,74.0,29.93,West,270,2.2,-999.0,68,-99.99,,,0.00,Acu-Link.com,2013-07-31 19:35:00,
2013-07-31 14:50:00,87.3,72.7,29.93,West,270,2.2,-999.0,62,-99.99,,,0.00,Acu-Link.com,2013-07-31 19:50:00,
2013-07-31 15:05:00,83.8,72.9,29.93,West,270,2.2,-999.0,70,-99.99,,,0.00,Acu-Link.com,2013-07-31 20:05:00,
2013-07-31 15:20:00,86.4,73.2,29.92,WNW,292,2.7,-999.0,65,-99.99,,,0.00,Acu-Link.com,2013-07-31 20:20:00,
2013-07-31 15:35:00,86.9,74.1,29.92,NW,315,2.7,-999.0,66,-99.99,,,0.00,Acu-Link.com,2013-07-31 20:35:00,
2013-07-31 15:51:00,86.2,73.5,29.92,NNW,337,2.7,-999.0,66,-99.99,,,0.00,Acu-Link.com,2013-07-31 20:51:00,
2013-07-31 16:21:00,85.6,72.9,29.91,East,90,2.2,-999.0,66,-99.99,,,0.00,Acu-Link.com,2013-07-31 21:21:00,
2013-07-31 16:36:00,84.6,72.0,29.92,West,270,2.2,-999.0,66,-99.99,,,0.00,Acu-Link.com,2013-07-31 21:36:00,
2013-07-31 16:51:00,88.3,72.6,29.90,WNW,292,2.7,-999.0,60,-99.99,,,0.00,Acu-Link.com,2013-07-31 21:51:00,
2013-07-31 17:07:00,87.3,72.2,29.90,East,90,5.3,-999.0,61,-99.99,,,0.00,Acu-Link.com,2013-07-31 22:07:00,
2013-07-31 17:22:00,86.4,72.3,29.89,ESE,112,1.7,-999.0,63,-99.99,,,0.00,Acu-Link.com,2013-07-31 22:22:00,
2013-07-31 17:37:00,85.5,71.9,29.89,NNE,22,1.7,-999.0,64,-99.99,,,0.00,Acu-Link.com,2013-07-31 22:37:00,
2013-07-31 17:53:00,85.1,72.4,29.89,WNW,292,1.7,-999.0,66,-99.99,,,0.00,Acu-Link.com,2013-07-31 22:53:00,
2013-07-31 18:08:00,85.1,72.9,29.90,West,270,0.0,-999.0,67,-99.99,,,0.00,Acu-Link.com,2013-07-31 23:08:00,
2013-07-31 18:23:00,84.6,72.0,29.89,West,270,0.0,-999.0,66,-99.99,,,0.00,Acu-Link.com,2013-07-31 23:23:00,
2013-07-31 18:38:00,83.8,72.1,29.90,NNE,22,1.1,-999.0,68,-99.99,,,0.00,Acu-Link.com,2013-07-31 23:38:00,
2013-07-31 18:53:00,83.3,72.0,29.89,ENE,67,2.7,-999.0,69,-99.99,,,0.00,Acu-Link.com,2013-07-31 23:53:00,
2013-07-31 19:09:00,82.8,72.4,29.90,WNW,292,1.1,-999.0,71,-99.99,,,0.00,Acu-Link.com,2013-08-01 00:09:00,
2013-07-31 19:24:00,81.9,72.4,29.91,NNW,337,0.0,-999.0,73,-99.99,,,0.00,Acu-Link.com,2013-08-01 00:24:00,
2013-07-31 19:39:00,80.8,72.1,29.90,NNW,337,0.0,-999.0,75,-99.99,,,0.00,Acu-Link.com,2013-08-01 00:39:00,
2013-07-31 19:55:00,79.9,71.6,29.91,West,270,0.0,-999.0,76,-99.99,,,0.00,Acu-Link.com,2013-08-01 00:55:00,
2013-07-31 20:10:00,79.0,71.5,29.91,WNW,292,0.0,-999.0,78,-99.99,,,0.00,Acu-Link.com,2013-08-01 01:10:00,
2013-07-31 20:25:00,78.3,71.2,29.92,WNW,292,0.0,-999.0,79,-99.99,,,0.00,Acu-Link.com,2013-08-01 01:25:00,
2013-07-31 20:40:00,77.4,71.1,29.92,WNW,292,0.0,-999.0,81,-99.99,,,0.00,Acu-Link.com,2013-08-01 01:40:00,
2013-07-31 20:55:00,76.5,70.9,29.91,WNW,292,0.0,-999.0,83,-99.99,,,0.00,Acu-Link.com,2013-08-01 01:55:00,
2013-07-31 21:11:00,75.7,70.9,29.92,WNW,292,0.0,-999.0,85,-99.99,,,0.00,Acu-Link.com,2013-08-01 02:11:00,
2013-07-31 21:26:00,74.8,70.7,29.93,WNW,292,0.0,-999.0,87,-99.99,,,0.00,Acu-Link.com,2013-08-01 02:26:00,
2013-07-31 21:56:00,74.1,70.3,29.93,West,270,0.0,-999.0,88,-99.99,,,0.00,Acu-Link.com,2013-08-01 02:56:00,
2013-07-31 22:12:00,73.8,70.0,29.93,SSE,157,0.0,-999.0,88,-99.99,,,0.00,Acu-Link.com,2013-08-01 03:12:00,
2013-07-31 22:27:00,73.4,70.0,29.94,NNE,22,0.0,-999.0,89,-99.99,,,0.00,Acu-Link.com,2013-08-01 03:27:00,
2013-07-31 22:42:00,73.0,69.6,29.94,West,270,0.0,-999.0,89,-99.99,,,0.00,Acu-Link.com,2013-08-01 03:42:00,
2013-07-31 22:58:00,72.9,69.5,29.95,NNW,337,1.7,-999.0,89,-99.99,,,0.00,Acu-Link.com,2013-08-01 03:58:00,
2013-07-31 23:13:00,72.9,69.1,29.95,WNW,292,0.0,-999.0,88,-99.99,,,0.00,Acu-Link.com,2013-08-01 04:13:00,
2013-07-31 23:28:00,72.3,68.5,29.95,ENE,67,0.0,-999.0,88,-99.99,,,0.00,Acu-Link.com,2013-08-01 04:28:00,
2013-07-31 23:44:00,72.0,68.2,29.96,NE,45,0.0,-999.0,88,-99.99,,,0.00,Acu-Link.com,2013-08-01 04:44:00,
2013-07-31 23:59:00,71.8,68.4,29.95,NNW,337,0.0,-999.0,89,-99.99,,,0.00,Acu-Link.com,2013-08-01 04:59:00,